GFSNGP_con_lsi_057.txt.gz
Lid_Strength_Index
12 11 10 11 11 11 13 12 14 12 12 10 8 7 7 6 6 6 6 6 6 5 5 4 4 5 6 6 7 7 7 8 8 8 7 7 8 8 10 11 12 13 15 15
14 11 11 13 11 10 11 11 11 11 11 8 7 6 7 6 6 6 7 6 6 5 5 5 5 5 6 7 7 7 8 8 8 9 9 10 10 11 12 13 14 15 16 16
17 12 13 16 13 11 11 10 10 13 9 7 7 7 7 6 6 6 6 6 6 5 5 5 5 5 6 6 7 9 9 11 11 11 11 11 12 13 13 14 14 16 16 16
16 15 20 12 8 9 10 9 8 9 8 7 7 6 5 5 5 5 5 5 5 5 4 4 5 6 6 8 9 10 11 12 12 12 13 13 13 13 14 14 15 16 16 16
17 17 13 11 9 10 11 11 8 8 7 7 6 6 6 5 4 5 4 4 4 6 7 7 7 8 10 11 11 11 12 12 12 13 14 13 14 14 14 15 15 16 16 16
14 18 19 11 8 6 7 14 7 8 8 7 7 11 8 5 5 6 6 7 8 9 9 9 10 10 12 12 13 13 13 13 13 13 14 14 14 15 15 15 15 16 17 16
15 16 14 9 7 6 15 13 9 9 8 8 9 7 6 6 6 7 8 9 9 10 10 11 11 12 13 13 14 14 14 14 14 14 15 14 14 14 15 16 17 17 17 17
14 16 18 8 8 12 9 8 8 8 8 8 7 7 7 7 8 8 9 9 10 11 12 12 13 13 13 15 15 15 15 15 16 15 15 15 15 15 16 16 17 17 18 18
12 13 8 7 8 6 7 8 8 8 7 7 7 7 8 7 9 10 11 11 12 13 14 14 14 13 15 16 15 16 16 17 16 15 15 14 15 16 16 16 16 17 18 18
10 9 8 7 6 6 6 7 6 6 6 6 7 6 7 8 8 10 12 13 14 14 14 15 14 15 15 15 15 15 16 16 15 15 15 15 14 15 15 15 16 16 16 16
10 9 8 7 6 5 5 5 5 5 5 5 5 6 7 8 10 12 13 14 14 14 15 16 15 16 15 14 14 14 15 15 15 15 15 15 14 14 14 14 13 14 14 14
11 8 8 8 6 5 5 6 5 5 6 5 8 8 9 10 11 12 13 14 16 16 17 18 17 17 16 15 14 14 14 14 14 14 14 14 15 14 12 12 12 12 11 12
8 6 6 6 5 4 5 5 5 6 6 7 8 10 11 13 13 14 16 16 17 18 19 18 18 18 18 16 12 12 13 14 14 14 15 15 15 15 16 15 13 13 13 13
6 6 7 6 7 5 6 6 7 8 8 9 10 12 13 15 16 17 18 18 19 19 19 19 20 21 20 16 14 13 13 13 13 14 14 14 14 14 14 15 15 16 14 14
7 6 6 6 6 7 7 8 9 9 9 12 12 13 14 15 17 18 20 20 21 21 21 21 22 22 21 18 17 15 15 15 15 15 14 15 15 14 14 14 15 16 16 15
10 10 9 9 8 8 8 8 9 8 10 12 13 14 16 17 19 21 21 21 19 22 23 23 24 24 22 18 17 17 18 18 16 16 16 16 16 16 16 15 15 15 15 17
15 12 12 12 11 10 10 9 8 9 10 14 16 17 18 20 22 24 25 24 24 25 24 25 25 24 22 20 18 18 19 19 18 18 18 17 16 16 16 16 17 16 18 18
18 18 17 16 16 15 14 10 10 11 13 15 17 19 20 20 22 24 24 25 26 27 27 24 24 23 23 22 20 19 20 20 20 20 19 20 19 19 18 18 18 18 18 17
20 20 19 19 19 19 17 14 14 14 16 17 18 19 21 22 22 23 22 23 24 26 28 26 22 24 24 21 20 20 20 20 21 21 21 21 20 20 20 18 18 18 18 19
22 21 21 22 23 22 20 20 18 19 19 20 22 23 24 25 25 27 28 30 30 29 27 26 25 25 25 24 21 21 21 21 22 22 22 22 21 21 21 22 21 20 20 20
24 23 23 24 24 24 23 21 21 22 22 21 23 25 26 26 25 25 26 27 28 26 25 25 24 24 24 23 23 23 22 23 23 23 22 22 21 22 22 22 22 21 21 21
25 25 25 25 26 26 25 24 24 25 25 25 26 26 27 28 28 28 26 27 26 24 24 24 25 25 24 23 23 23 22 22 22 22 22 22 22 22 22 22 22 22 22 22
26 26 26 27 27 28 28 28 26 26 26 26 26 26 26 26 24 25 27 25 24 23 23 23 24 23 23 23 23 23 23 23 23 23 23 23 23 23 23 23 22 22 23 23
26 26 26 26 26 28 30 29 28 28 28 28 26 25 26 27 27 25 25 26 25 24 24 24 23 23 24 24 24 24 23 23 23 23 24 25 24 24 23 24 24 23 24 24
27 26 26 27 28 29 28 27 28 28 28 28 28 27 26 26 26 26 25 26 24 25 25 24 23 24 25 25 24 24 24 24 24 25 25 25 25 25 25 24 25 24 24 24
27 28 28 28 27 26 26 26 27 27 28 29 28 27 27 26 26 26 26 26 26 26 26 26 26 26 25 25 25 25 25 25 25 25 26 25 25 25 25 25 24 24 24 24
27 26 27 28 28 28 27 27 28 29 28 29 30 29 28 28 27 27 27 27 27 27 27 27 26 27 27 27 27 27 26 26 26 26 27 27 26 26 26 25 25 25 25 24

GFSNGP_con_lsi_060.txt.gz
Lid_Strength_Index
12 12 11 12 13 12 13 13 16 14 14 12 10 10 9 8 8 8 8 8 8 8 8 8 8 8 8 8 9 8 8 9 8 10 9 9 10 11 11 12 13 14 15 15
14 12 12 13 12 12 12 12 12 12 13 9 9 8 9 8 8 9 9 8 8 8 8 8 8 7 7 8 9 9 9 9 9 10 11 12 12 12 13 14 14 15 15 15
17 13 13 16 14 12 12 10 11 13 11 10 10 9 8 8 8 8 7 7 7 7 7 7 7 7 8 8 9 10 11 13 14 13 13 12 13 13 14 15 15 16 16 15
16 15 20 13 10 10 11 10 9 9 9 8 8 7 7 8 8 7 7 7 7 7 7 8 8 8 9 11 12 12 14 14 15 14 15 15 15 15 15 16 16 17 17 16
17 17 14 13 12 12 13 12 9 9 8 8 9 9 8 8 8 9 9 8 9 9 10 10 10 11 13 13 13 13 13 14 14 15 16 16 17 17 17 17 18 19 16 16
14 22 24 15 11 8 8 14 9 8 8 9 9 12 9 9 8 9 9 10 11 11 11 11 12 12 13 13 14 14 13 13 14 15 16 17 17 18 18 19 17 16 16 16
15 16 14 12 11 8 15 14 12 10 9 10 10 9 7 7 8 9 10 10 10 11 11 12 13 14 13 14 15 15 16 16 17 16 17 17 17 19 19 19 17 17 17 17
17 17 18 10 10 12 10 10 11 10 9 9 9 9 8 9 9 10 10 10 11 12 12 13 14 15 15 16 16 17 17 17 18 19 17 17 18 19 19 20 18 17 17 17
13 14 9 9 10 7 8 9 9 9 9 8 9 9 9 9 8 9 10 11 12 14 14 14 16 16 16 16 16 18 18 18 18 18 17 17 18 19 18 19 18 17 17 18
16 13 11 10 8 8 7 8 8 8 9 9 9 9 9 8 8 9 11 12 14 15 14 14 16 15 17 17 16 18 18 18 16 15 17 18 17 17 18 18 18 17 17 17
15 13 12 11 9 8 8 7 7 7 7 7 8 8 8 9 11 10 10 14 14 15 15 16 15 15 15 16 15 16 18 16 15 15 15 17 16 17 15 15 15 17 17 16
14 11 10 10 9 8 9 9 8 7 7 7 8 8 8 11 11 12 13 14 15 16 16 18 18 16 15 14 14 14 15 16 15 15 15 15 14 13 11 11 11 11 11 12
10 8 8 8 7 8 8 7 7 8 7 9 8 9 10 11 13 14 16 16 16 18 19 17 17 18 18 16 13 14 14 15 15 15 16 16 15 15 16 14 12 12 12 12
8 9 10 9 9 8 8 8 9 9 9 9 9 13 13 13 15 17 17 16 16 17 18 19 19 21 21 19 13 13 13 13 14 14 14 14 14 15 15 16 17 17 14 14
8 9 10 10 9 10 10 10 11 10 9 9 14 14 16 17 17 19 20 18 18 19 21 21 22 23 22 18 17 16 15 15 15 15 14 14 14 14 14 16 17 17 17 17
15 15 14 13 12 12 12 13 13 11 11 11 15 16 16 17 19 21 20 19 19 24 23 23 24 23 22 19 18 19 18 17 17 17 17 17 17 17 17 18 17 16 19 20
20 18 20 19 18 17 17 16 15 14 12 11 15 15 17 18 20 21 22 22 23 25 23 24 24 23 22 20 19 19 18 19 18 19 19 19 18 18 18 19 18 20 21 19
23 22 21 21 21 20 20 19 19 17 15 14 19 17 17 18 19 22 23 24 24 25 25 24 23 22 22 20 19 20 20 21 21 22 21 21 21 20 20 20 21 21 21 20
25 25 23 22 23 23 24 23 21 20 18 21 20 18 17 19 21 22 21 22 23 25 26 25 21 23 22 19 20 20 21 22 22 22 22 22 23 23 22 22 23 23 24 24
28 27 26 26 26 27 26 25 23 21 21 22 20 22 22 22 23 24 25 28 27 26 25 24 23 23 23 22 21 21 21 22 23 23 23 23 23 24 24 25 25 25 26 27
29 28 26 27 27 27 27 25 24 24 23 23 23 24 24 24 24 24 26 27 27 24 24 24 24 24 23 23 23 23 23 23 24 24 24 25 24 25 26 26 28 28 29 28
27 27 28 29 29 30 28 26 25 25 25 24 24 24 25 26 26 26 25 26 24 23 24 24 24 23 23 22 23 23 24 24 24 24 25 26 26 26 29 28 28 28 29 30
29 29 29 30 30 29 28 27 27 26 26 25 26 25 25 25 24 25 27 24 23 23 23 23 23 22 22 24 24 24 24 25 25 25 27 28 28 29 29 30 31 30 31 30
30 29 28 27 27 28 29 28 27 28 28 28 28 26 26 26 26 25 25 24 23 23 24 24 22 22 24 25 25 25 25 25 27 29 29 27 31 31 32 31 31 31 31 31
28 26 26 26 27 27 27 27 28 28 28 28 28 27 27 26 26 26 26 25 24 25 26 24 23 24 26 26 26 26 26 29 30 32 32 32 33 33 33 33 33 33 34 33
30 28 27 27 27 26 27 27 28 28 28 29 29 28 28 27 26 26 26 26 27 27 27 27 27 27 27 27 27 28 29 30 29 31 31 32 34 34 34 33 33 32 32 32
28 26 27 28 28 28 28 28 29 29 29 29 30 29 28 28 28 28 27 28 27 27 28 28 27 28 29 29 29 29 30 31 29 31 35 35 35 35 34 33 34 33 31 30

GFSNGP_con_lsi_063.txt.gz
Lid_Strength_Index
13 12 12 13 13 13 14 14 16 15 15 12 11 10 9 10 9 9 9 9 8 8 8 8 9 8 8 9 9 9 9 9 9 9 9 9 10 11 11 11 11 12 13 14
14 12 12 14 12 12 12 13 13 13 14 10 10 9 10 10 10 9 9 9 8 8 8 8 8 8 8 9 9 10 10 10 9 10 11 12 12 12 12 13 13 14 14 14
17 14 14 16 14 13 12 11 11 13 11 9 10 10 10 9 9 9 10 9 9 9 9 9 9 9 10 10 10 11 12 12 13 13 13 12 12 13 13 13 14 14 15 15
16 16 20 16 13 11 12 11 9 9 9 9 9 9 9 9 10 10 10 10 10 10 10 10 11 11 12 13 13 13 13 14 13 14 14 15 15 14 14 14 15 16 17 17
20 21 16 15 14 13 14 14 11 11 10 10 10 11 11 9 9 10 10 10 10 10 11 11 11 13 14 14 14 13 13 13 13 14 16 16 16 16 16 17 18 18 17 17
22 19 22 16 12 10 10 15 11 10 10 11 11 14 12 9 10 9 9 10 11 11 12 12 12 13 14 14 15 14 14 14 14 15 17 17 16 17 18 18 17 16 15 15
15 17 17 14 12 9 16 15 12 11 10 10 11 10 9 8 9 9 9 9 9 11 11 12 13 14 14 14 14 15 16 16 16 17 18 18 18 19 19 17 16 16 16 16
14 16 18 11 11 12 11 11 10 10 9 10 10 9 9 9 9 9 9 10 10 11 11 12 13 14 14 14 14 16 17 18 19 20 17 18 19 21 21 18 16 17 17 16
14 14 11 10 10 8 7 8 9 9 9 9 9 9 9 9 9 9 9 9 10 12 12 13 16 16 15 15 16 17 18 16 18 19 18 19 18 19 20 19 16 17 17 17
15 14 14 11 9 7 6 7 9 9 9 9 9 9 9 10 9 9 10 11 13 14 14 14 17 16 16 17 17 17 15 15 15 16 18 20 18 18 18 19 17 17 17 17
17 14 13 12 11 10 9 8 9 9 9 9 9 9 9 10 11 10 10 12 15 15 14 15 17 17 17 16 17 17 14 14 14 15 17 18 17 15 15 15 15 18 19 18
17 12 12 11 10 9 10 10 9 10 10 9 9 9 9 10 10 11 11 13 15 16 17 18 19 19 15 16 16 15 14 14 14 15 16 16 14 13 11 11 11 12 12 14
11 9 9 9 9 9 9 9 9 9 9 9 9 9 11 10 13 14 15 16 17 18 19 20 18 19 19 16 13 12 13 14 14 15 16 15 15 15 16 14 12 11 11 11
9 10 11 10 10 10 9 9 10 11 11 10 11 14 13 13 16 17 18 18 19 19 17 17 20 22 19 17 15 12 13 14 14 15 15 15 15 16 16 17 17 16 12 12
10 11 12 12 12 11 11 12 13 13 12 12 13 15 17 16 15 17 22 21 19 18 18 19 19 20 19 17 14 13 14 14 14 14 15 14 14 15 17 17 17 18 17 16
17 16 16 16 16 16 17 17 17 16 15 15 15 14 14 15 20 24 23 20 17 18 20 24 21 20 19 16 16 15 15 16 15 16 16 16 16 16 17 17 18 20 20 21
21 18 22 22 21 21 21 20 19 18 18 19 18 16 15 16 19 24 25 23 20 24 23 23 21 19 18 17 17 17 17 18 18 18 18 18 18 18 18 19 20 21 21 17
24 23 23 23 23 23 23 23 23 23 23 21 20 19 16 17 17 20 24 22 22 24 24 23 20 19 18 18 18 18 19 19 19 20 19 19 20 20 20 21 21 22 22 19
28 27 26 25 25 26 26 26 26 25 24 23 22 21 18 17 20 20 23 22 22 24 24 22 18 20 18 17 18 18 19 20 20 21 21 21 22 22 22 22 23 24 24 24
31 29 29 29 29 30 28 27 28 27 26 24 22 23 24 25 23 22 23 26 26 24 22 21 22 22 21 19 18 19 20 20 21 22 22 22 23 23 23 24 24 25 26 28
30 30 30 30 30 30 31 30 29 27 26 26 24 25 25 25 24 24 24 25 24 22 23 22 22 22 22 21 21 21 21 22 22 23 23 23 24 24 25 26 26 26 29 28
33 33 31 31 32 32 32 31 30 28 27 28 26 25 25 25 24 24 23 24 22 22 22 23 22 22 22 21 22 22 23 23 23 23 24 24 25 25 26 26 28 29 29 31
34 34 32 33 32 31 32 31 29 28 28 27 26 26 25 24 23 24 25 23 23 23 23 22 21 21 22 23 22 23 23 23 24 24 25 26 27 27 28 28 28 29 31 32
35 34 33 34 34 33 33 29 27 27 27 27 27 26 25 26 26 25 24 24 23 24 24 23 21 21 23 24 24 24 25 25 26 27 26 26 28 28 29 31 31 32 33 33
35 34 33 32 31 30 29 27 27 27 27 28 28 28 27 26 27 27 26 25 24 26 26 23 23 24 26 26 26 26 26 27 28 28 29 29 28 32 34 35 35 35 36 37
33 32 31 30 30 27 26 27 28 28 28 29 29 28 28 27 26 26 26 26 26 26 27 26 27 27 27 28 28 28 28 28 28 28 28 29 34 34 35 35 35 35 35 36
31 28 30 29 28 28 28 28 29 29 29 29 30 29 28 28 27 27 27 27 27 27 27 28 28 28 28 29 29 29 29 29 28 29 31 32 35 37 36 35 35 35 34 33

GFSNGP_con_lsi_069.txt.gz
Lid_Strength_Index
14 13 13 14 14 13 15 14 16 15 15 14 12 11 11 11 10 10 10 10 10 10 10 10 10 10 10 10 11 11 12 12 11 11 11 11 12 12 12 12 11 11 12 12
15 13 13 15 13 14 14 15 14 14 14 10 10 11 11 11 11 11 11 11 11 10 10 10 10 11 11 11 12 13 13 13 13 14 14 14 14 13 13 13 13 13 13 13
17 14 14 16 15 14 14 13 13 15 12 12 12 12 11 12 12 12 12 11 11 11 11 11 11 11 11 11 12 14 14 14 14 14 14 14 14 14 13 13 13 13 13 13
17 15 20 16 14 12 12 12 11 12 12 11 11 11 11 12 12 12 12 11 11 11 11 11 11 12 12 13 14 13 13 15 15 15 15 15 14 15 14 14 15 15 15 15
17 17 17 16 15 14 14 14 11 11 14 13 13 13 13 11 11 12 12 11 11 12 12 12 12 12 14 13 14 14 14 13 14 15 15 15 16 15 15 16 17 17 16 17
19 19 23 18 15 14 14 18 14 13 13 13 13 16 15 11 13 12 12 12 12 12 12 13 12 13 14 14 15 14 13 13 14 15 15 14 14 15 16 18 16 16 14 13
19 20 19 16 15 14 20 19 15 12 12 13 14 13 12 12 12 12 12 12 13 13 13 12 12 14 14 14 14 13 15 15 16 16 16 16 16 18 18 18 17 17 15 14
15 17 19 15 13 14 13 12 12 12 12 12 12 12 12 12 12 12 12 12 12 13 12 12 13 15 14 14 13 15 15 16 16 15 17 16 21 20 21 20 19 16 14 14
14 14 12 12 12 10 10 11 11 11 11 11 11 12 12 12 11 11 11 11 11 13 13 12 15 16 15 13 15 15 16 16 14 13 17 19 21 20 21 22 20 17 15 15
16 16 13 11 9 9 9 10 10 10 11 10 11 11 12 11 11 11 12 13 14 15 14 14 14 15 16 15 16 18 18 17 14 14 17 20 18 18 16 16 14 14 14 14
18 16 14 13 12 10 11 11 11 11 11 12 12 12 12 12 12 12 13 14 15 15 15 15 15 15 16 16 13 15 17 17 15 16 18 18 16 16 16 16 13 13 13 13
17 13 12 12 10 10 11 11 10 11 11 12 12 12 12 12 13 13 14 15 15 16 16 15 17 16 16 20 17 14 14 14 13 13 16 16 13 13 10 10 10 10 10 12
12 11 11 11 11 11 11 11 12 12 12 12 12 12 14 14 15 15 15 17 17 16 16 16 17 18 17 22 22 17 14 12 12 13 15 16 14 13 12 10 8 8 9 9
12 12 13 12 12 12 12 13 15 16 15 14 15 17 17 17 17 17 17 17 16 17 18 20 19 19 20 24 25 21 18 15 12 13 16 15 13 13 13 13 14 15 11 11
12 12 12 14 14 14 16 17 19 18 17 18 19 20 21 21 21 20 19 18 18 18 20 21 21 19 24 26 24 22 18 15 12 13 12 12 12 13 14 14 16 17 16 15
15 18 18 17 16 17 19 21 21 19 19 20 21 21 21 22 23 22 22 21 21 19 18 26 22 20 27 27 24 21 18 15 12 11 11 11 13 14 15 16 17 18 18 18
19 20 24 22 20 21 23 22 22 21 22 23 23 24 24 25 25 24 23 23 20 19 19 23 22 26 25 24 23 19 17 14 11 11 11 12 13 14 16 16 18 18 18 17
22 23 23 24 23 25 26 27 27 27 27 26 25 26 27 27 26 25 24 23 21 21 23 24 27 25 24 23 21 18 16 14 13 12 13 13 14 15 16 17 18 18 19 17
27 26 27 25 27 29 31 31 31 30 29 28 29 28 28 27 27 26 24 24 23 23 23 29 22 21 24 22 18 17 16 15 15 14 15 15 16 16 17 18 19 20 21 22
32 31 31 32 33 33 33 33 34 35 32 33 33 31 30 28 27 26 26 26 25 26 25 26 24 23 22 20 17 17 16 15 16 16 16 17 18 19 19 19 21 22 23 23
33 34 34 35 35 36 36 36 36 35 33 35 34 31 29 28 27 28 28 27 27 26 24 22 22 22 21 20 18 18 17 17 17 18 18 19 20 20 21 21 22 22 24 25
37 36 36 36 37 36 36 37 38 37 35 34 33 32 31 30 30 29 27 26 25 22 22 22 21 20 20 19 19 19 19 20 20 20 20 21 21 21 22 22 23 23 24 26
38 38 36 37 37 36 38 38 37 37 36 36 34 32 30 28 28 28 28 25 23 22 22 22 20 19 19 20 21 21 21 21 22 21 22 22 22 22 22 23 24 24 25 25
40 40 39 40 41 38 35 36 38 36 36 34 33 30 29 28 29 27 25 24 25 25 23 22 21 21 22 23 23 23 23 23 23 23 23 23 23 23 24 24 24 25 25 26
40 40 41 39 37 36 38 36 36 35 34 31 29 28 27 26 29 30 28 27 25 26 26 25 23 24 25 25 25 25 25 25 25 24 24 24 24 25 25 25 26 27 27 27
40 38 38 39 37 37 37 35 34 34 32 30 28 27 27 26 27 28 28 26 27 27 27 27 26 27 27 27 27 26 26 26 25 25 25 26 26 26 27 27 27 28 29 31
40 36 38 37 37 36 36 34 34 33 30 29 28 27 27 27 27 27 27 27 27 27 27 27 27 27 27 27 27 27 27 27 27 27 27 27 28 28 28 29 30 33 35 35

GFSNGP_con_lsi_072.txt.gz
Lid_Strength_Index
14 14 14 15 15 15 15 14 16 16 15 12 12 13 11 11 11 10 11 11 11 11 11 11 11 11 11 11 11 11 12 12 12 12 13 13 13 13 13 13 12 12 13 13
16 13 13 14 13 14 14 14 15 15 15 12 11 10 11 11 11 11 11 11 11 11 11 11 12 12 12 12 12 13 13 14 13 14 14 14 14 14 14 14 13 13 13 13
20 15 15 17 15 15 15 14 14 16 13 12 12 11 11 12 12 12 12 12 12 12 12 12 12 12 12 12 13 14 14 15 15 15 15 15 15 15 14 14 14 14 14 14
18 15 20 15 15 13 13 13 12 12 12 12 11 12 11 12 13 13 12 12 12 12 12 12 12 12 13 13 14 14 14 15 16 15 16 16 16 16 15 15 14 15 15 15
17 17 17 16 15 14 14 14 11 11 13 13 13 13 14 12 12 13 13 12 12 12 12 13 13 13 14 14 14 14 14 14 15 15 16 16 16 16 16 16 16 16 15 16
18 19 22 17 15 13 14 18 14 11 13 14 14 16 14 12 13 13 13 12 12 13 13 13 13 14 14 14 15 15 14 15 16 16 17 17 16 16 17 18 15 15 15 17
17 19 19 16 16 15 19 17 16 14 13 14 14 14 13 13 14 14 13 13 14 14 13 13 13 14 14 15 15 14 16 16 16 16 17 17 17 17 17 17 17 18 17 18
17 19 20 15 16 16 15 15 15 14 14 14 13 13 14 14 13 13 13 13 13 13 13 13 14 16 15 15 14 16 16 16 16 17 15 15 19 18 19 20 20 18 19 16
16 16 15 16 15 14 14 14 14 14 13 13 13 13 13 13 13 12 12 12 12 14 14 13 15 16 16 14 16 16 17 17 16 16 14 17 20 18 19 22 20 18 18 18
17 18 16 13 13 12 12 11 12 12 12 12 12 13 13 13 12 12 13 14 15 16 15 15 15 16 16 15 16 16 14 14 15 15 13 15 17 17 18 18 18 16 17 17
20 17 15 14 13 11 11 11 11 11 11 12 12 13 13 13 13 13 14 14 16 16 15 15 15 15 16 17 18 18 16 14 13 13 14 15 15 15 16 16 15 17 17 17
16 12 11 11 10 11 12 11 11 11 12 12 12 12 13 14 14 14 15 16 17 18 18 18 19 17 16 21 22 21 17 15 14 13 13 13 14 15 11 9 9 9 9 12
13 11 11 10 10 11 11 12 12 12 12 13 13 14 16 16 17 18 19 20 20 19 18 18 18 18 17 23 25 23 20 18 16 14 13 12 15 15 12 11 9 8 9 9
11 12 13 13 12 11 11 12 15 16 16 15 16 19 20 20 21 22 21 22 22 21 21 21 20 20 18 21 26 25 23 21 19 17 15 12 13 14 16 16 15 14 11 8
12 12 12 13 13 14 15 17 19 18 18 20 21 22 24 24 24 24 24 24 23 24 24 23 22 20 22 26 25 23 22 20 19 16 14 12 12 12 14 14 14 14 14 13
15 17 18 16 15 16 18 21 20 20 21 22 24 24 24 25 26 26 26 27 27 25 23 22 21 20 23 27 25 24 22 21 19 17 15 12 12 12 13 14 14 14 15 16
18 18 22 22 18 19 21 23 22 22 23 25 26 27 29 29 28 28 29 29 27 25 23 22 22 21 26 26 25 23 21 19 18 16 14 11 12 12 13 13 14 16 16 16
16 18 20 19 19 23 26 28 28 28 29 28 29 30 31 33 30 28 27 26 26 25 24 23 28 27 26 25 24 22 20 19 17 16 13 11 11 12 13 14 15 16 16 15
25 24 26 25 26 27 28 30 32 31 31 32 34 33 32 31 30 29 28 28 27 27 24 29 22 22 25 24 21 20 18 18 17 15 13 12 13 13 14 15 17 18 19 19
29 29 29 31 32 32 32 34 35 36 36 37 38 38 35 32 32 31 30 29 28 26 25 26 26 25 24 24 21 20 19 17 17 16 15 14 14 15 16 17 18 19 20 21
30 30 31 31 33 37 36 36 36 37 35 39 38 37 35 33 33 33 33 28 28 27 26 25 25 23 22 22 19 19 19 19 19 17 16 16 17 17 18 19 20 20 22 23
33 32 33 33 34 36 39 40 38 40 39 38 39 38 37 33 33 31 31 29 25 24 24 23 22 21 20 20 21 20 20 20 19 18 18 18 18 19 20 20 21 22 22 23
34 35 34 35 35 36 41 41 40 39 37 38 37 36 34 31 29 30 29 29 25 24 24 23 22 21 21 22 22 22 21 21 20 20 20 20 20 21 21 22 22 22 23 23
37 38 38 41 42 39 35 37 40 40 39 38 38 36 34 32 31 31 29 26 26 26 26 24 23 22 24 24 24 23 23 23 22 22 22 22 22 22 22 22 23 23 23 24
36 38 40 37 33 36 40 40 39 38 38 37 36 35 34 31 31 31 31 29 26 27 27 25 24 25 26 26 25 25 25 24 24 24 24 24 24 24 24 24 24 24 25 25
36 34 34 37 37 38 38 38 36 37 37 36 36 35 34 32 31 29 29 27 27 26 27 26 26 26 27 27 26 26 26 26 26 26 25 26 25 25 25 25 25 26 26 27
38 37 39 38 39 39 39 37 36 36 37 37 36 35 33 32 31 28 26 26 26 26 26 27 26 26 27 27 27 27 27 27 26 26 26 26 26 27 27 27 27 28 28 29

GFSNGP_con_lsi_075.txt.gz
Lid_Strength_Index
15 15 15 15 15 15 15 15 17 17 16 13 12 12 11 11 11 11 11 11 11 11 11 11 11 11 11 11 11 12 12 12 12 12 13 13 13 13 13 13 12 12 12 12
16 14 13 15 14 14 13 15 16 16 16 13 11 12 11 11 10 11 11 12 12 11 11 11 11 11 11 12 12 13 13 13 13 13 14 14 14 14 14 13 13 13 13 13
20 15 15 18 15 15 14 14 13 15 13 11 12 11 11 11 11 12 12 12 12 12 12 12 12 12 12 12 13 14 14 14 14 14 15 15 15 15 14 14 14 14 14 13
16 16 20 14 14 12 12 13 12 12 12 11 11 11 11 12 13 13 12 12 12 12 12 12 12 13 13 13 14 14 15 15 15 15 15 15 16 15 15 15 15 15 15 14
17 17 16 16 15 14 14 14 12 12 13 13 13 13 14 13 12 12 12 12 12 12 12 13 13 13 14 14 14 14 14 14 15 16 16 16 17 16 15 15 15 15 14 15
17 18 20 16 15 13 13 17 13 11 12 14 13 14 14 13 13 13 12 12 12 13 13 13 13 14 14 14 15 15 15 15 15 16 17 17 16 16 16 16 15 15 14 14
16 18 18 16 15 14 17 16 16 13 13 14 14 13 13 13 13 13 13 12 13 13 13 14 14 15 15 15 15 15 16 16 16 16 17 17 16 17 16 17 16 16 16 15
17 18 18 15 16 15 15 15 15 15 14 14 14 15 14 14 14 14 14 14 13 13 13 13 15 16 16 16 15 17 17 17 17 18 17 15 15 17 18 18 18 17 16 15
14 15 15 16 16 15 14 14 14 14 14 14 15 15 15 15 14 14 14 14 14 15 15 14 17 17 16 15 16 17 18 16 14 14 17 14 14 16 16 18 17 16 15 15
15 17 17 15 14 14 14 14 14 14 14 15 15 15 15 15 15 14 15 15 16 17 17 17 17 16 18 17 16 19 19 17 16 15 13 12 13 14 16 16 16 15 15 15
21 19 18 16 15 14 14 15 15 15 15 15 15 15 15 15 15 14 15 16 17 18 18 18 18 18 19 17 18 19 19 18 16 14 14 13 12 12 14 13 13 13 13 13
17 15 13 13 13 14 14 14 14 14 14 14 14 14 14 14 15 15 17 18 19 20 21 20 20 20 20 22 21 21 20 18 17 16 15 14 14 13 11 10 9 8 8 8
14 12 12 10 10 12 12 12 12 12 12 13 14 15 16 17 18 19 20 21 22 22 22 22 22 22 23 24 26 25 23 21 20 19 18 17 15 14 14 12 9 8 8 8
11 12 13 12 11 11 11 12 15 16 16 15 17 20 21 21 22 23 23 24 25 25 26 26 25 24 22 23 27 25 25 23 22 21 19 18 16 14 13 13 13 12 11 7
12 13 11 12 13 13 15 16 17 17 18 20 22 23 25 27 28 28 29 29 29 29 29 29 27 25 24 25 25 24 23 22 21 20 19 18 16 14 13 13 13 13 12 10
15 17 17 14 14 16 17 20 18 19 21 22 24 24 25 27 30 32 32 33 32 28 28 27 26 24 24 28 26 25 24 23 22 21 19 18 16 14 12 12 12 12 12 12
17 18 20 20 16 17 18 20 19 20 22 23 26 28 30 32 33 34 34 34 33 31 29 27 26 24 28 26 26 25 24 23 22 21 19 18 16 14 11 12 12 12 12 13
12 12 12 15 16 19 23 24 24 25 26 27 29 31 34 36 35 33 33 34 33 33 29 28 29 27 24 25 26 25 24 23 21 20 18 17 15 13 11 12 12 13 13 12
20 16 20 20 20 19 24 27 29 30 31 32 34 35 36 36 36 35 36 36 33 33 29 30 23 23 26 26 23 22 22 21 20 19 17 16 15 13 12 12 13 13 15 17
27 26 27 29 29 29 30 33 32 33 36 35 38 39 38 37 38 38 38 36 33 29 29 27 27 27 26 25 23 23 22 21 20 19 18 16 15 13 13 13 14 16 17 18
26 28 29 29 32 33 32 32 32 32 36 37 36 37 36 37 39 39 37 34 31 31 28 26 27 25 22 22 22 22 21 21 20 19 18 16 16 15 16 16 17 18 19 20
31 30 30 31 31 35 38 37 36 35 36 39 40 40 41 37 38 37 35 32 30 27 27 26 26 23 22 22 23 23 23 22 21 20 19 18 17 18 18 18 19 20 21 21
32 32 32 33 32 34 39 40 39 37 36 37 36 36 35 34 34 33 33 33 31 29 30 29 25 21 21 24 24 24 24 24 23 22 21 20 19 19 20 20 21 21 21 22
34 32 35 37 36 35 34 39 42 40 40 40 38 37 36 35 36 34 33 31 30 28 29 27 23 21 24 26 25 25 25 25 24 23 23 22 22 21 21 21 22 22 22 22
32 35 35 34 33 34 35 40 41 41 41 39 39 38 38 34 32 34 34 33 28 29 30 27 22 23 28 28 26 26 26 26 25 25 24 24 24 24 23 23 23 23 23 23
33 31 33 34 35 33 36 37 35 38 39 37 39 38 37 36 34 32 32 30 31 28 30 29 29 26 28 27 26 26 26 26 26 26 25 25 25 25 24 24 24 24 24 24
32 32 34 34 34 32 33 33 31 34 39 40 37 37 36 35 34 31 30 30 30 29 28 29 27 26 27 27 26 26 26 26 26 26 26 26 26 26 26 25 25 25 25 26

GFSNGP_con_lsi_078.txt.gz
Lid_Strength_Index
13 13 12 12 13 14 14 12 15 13 14 11 10 10 9 9 9 9 9 9 9 9 9 9 9 9 8 9 9 9 9 10 10 10 11 11 11 11 11 10 10 10 10 10
15 13 13 14 12 13 13 13 13 13 13 10 9 9 10 10 10 9 9 9 10 9 9 9 9 9 9 10 10 10 10 11 11 12 12 12 12 12 12 12 12 12 11 11
15 13 13 15 14 13 12 11 11 14 11 10 9 9 9 8 8 8 9 10 10 9 9 10 10 10 10 10 11 11 11 12 13 13 13 13 13 13 13 13 13 13 12 12
16 14 18 13 10 10 11 11 10 10 10 9 9 8 7 7 8 9 9 10 9 10 10 10 11 11 11 11 12 12 12 13 13 13 13 13 14 14 13 13 13 13 13 12
17 17 13 12 13 12 12 12 10 10 9 9 9 9 10 9 8 9 9 9 10 10 10 11 11 12 12 12 12 13 13 13 13 14 14 14 15 14 14 14 13 13 13 12
15 18 19 12 12 9 9 13 9 9 10 11 10 12 10 11 11 10 10 10 11 11 11 11 12 12 12 13 13 13 14 14 14 14 15 15 14 14 13 14 14 13 13 12
16 17 15 12 13 11 15 13 11 9 10 11 11 10 11 11 12 11 11 11 11 11 12 12 13 13 13 14 14 14 15 15 15 14 15 14 14 14 14 14 13 13 13 12
15 17 18 13 13 12 11 13 12 11 11 11 13 12 12 12 12 12 12 11 11 11 12 13 14 14 15 15 15 16 16 16 15 15 14 14 15 13 13 14 14 13 12 12
13 13 14 13 13 12 12 12 12 11 11 12 13 13 13 13 13 13 12 12 12 13 14 15 16 16 17 16 16 16 17 17 16 15 14 13 13 12 13 13 13 12 12 12
13 13 14 13 12 12 11 11 12 11 11 12 13 13 13 13 13 13 14 14 15 16 16 17 17 17 17 17 16 18 18 17 16 16 14 13 12 12 12 12 13 13 12 12
16 17 15 13 13 12 12 12 12 12 12 13 13 13 14 14 14 14 15 16 17 17 17 17 17 17 17 18 18 19 18 17 16 15 14 14 13 13 13 12 12 13 13 12
13 13 12 12 12 12 12 12 12 13 14 14 13 14 14 14 15 15 17 18 18 19 19 19 19 20 19 20 19 20 19 17 17 17 16 16 15 15 13 12 11 10 10 9
13 12 12 11 10 11 12 13 13 13 13 14 15 15 15 16 17 18 19 19 21 21 22 22 22 22 21 21 21 21 21 20 19 19 18 17 17 16 17 14 11 10 9 8
12 12 13 12 12 12 12 12 14 15 15 15 17 17 18 18 20 20 21 22 23 23 24 24 24 24 22 21 21 22 22 22 21 20 19 19 18 17 16 16 15 13 10 9
13 14 12 11 12 13 13 14 15 15 16 17 18 19 19 20 21 22 23 25 26 27 27 27 27 25 23 23 24 23 23 22 21 20 20 19 18 18 17 16 15 13 11 9
13 14 14 11 12 13 14 15 14 15 16 18 20 21 21 22 24 25 27 27 26 24 27 28 27 25 25 25 25 23 22 22 22 21 20 19 18 18 16 15 14 12 10 9
14 14 15 14 13 14 13 13 12 14 17 19 20 23 25 26 27 28 29 29 29 29 28 28 27 26 26 26 24 22 22 22 22 21 20 19 19 18 16 15 14 12 10 8
9 9 10 11 12 13 17 16 16 17 18 20 24 26 27 28 23 27 29 30 31 30 28 26 26 26 25 24 24 22 22 22 21 21 20 19 18 17 16 15 14 11 9 9
12 10 10 11 12 12 14 17 19 21 24 25 27 26 27 28 29 29 31 31 30 28 24 25 23 23 23 23 21 20 20 21 20 20 19 19 18 16 15 14 13 10 9 11
14 19 17 19 21 17 20 23 25 27 29 29 30 30 29 30 31 31 32 28 26 24 25 25 24 23 23 22 21 20 20 20 20 20 19 19 17 16 15 14 12 11 12 14
14 19 21 22 26 27 26 26 27 29 32 31 29 28 28 30 32 32 29 24 24 26 25 24 24 22 21 21 21 20 20 20 21 20 20 19 18 17 15 14 14 14 15 16
26 26 28 28 28 31 30 29 29 31 32 32 34 33 32 29 31 31 30 25 24 26 24 23 23 23 21 23 21 21 21 21 21 20 20 21 20 18 17 16 16 17 17 18
27 27 28 29 28 30 33 31 31 30 31 31 31 31 29 25 25 25 24 26 26 25 24 24 25 22 22 22 22 22 22 22 22 21 21 21 21 20 19 19 18 18 19 19
30 29 30 31 31 30 30 32 32 31 32 31 31 32 28 27 27 28 25 27 28 26 25 24 23 21 24 23 23 23 23 22 22 22 22 22 22 21 21 20 20 20 20 20
29 32 31 30 28 27 29 31 32 33 32 30 31 31 31 28 27 25 26 26 26 25 24 25 23 23 24 24 24 24 23 23 23 23 23 23 23 23 22 22 21 21 21 21
29 28 27 26 25 27 28 29 26 28 29 28 28 28 28 28 27 27 26 27 26 26 25 24 24 24 24 24 24 23 23 23 23 23 24 24 24 24 23 23 23 23 22 22
29 30 29 29 28 28 28 27 27 28 29 27 27 28 28 28 27 27 27 26 26 25 25 24 24 24 24 24 23 23 23 23 23 23 23 24 24 24 24 24 24 23 23 23